Stations météo

Publicité
Marseille/Marignane, France (7650): Température de l'air & dewpoint: 18.01.2021 07:00:00 - 24.01.2021 07:00:00 (CET)Marseille/Marignane, France (7650): Température de l'air 5cm: 18.01.2021 07:00:00 - 24.01.2021 07:00:00 (CET)Marseille/Marignane, France (7650): Température de l'air -20cm & Température de l'air -100cm: 18.01.2021 07:00:00 - 24.01.2021 07:00:00 (CET)Marseille/Marignane, France (7650): Vitesse du vent & gusts: 18.01.2021 07:00:00 - 24.01.2021 07:00:00 (CET)Marseille/Marignane, France (7650): Direction du vent: 18.01.2021 07:00:00 - 24.01.2021 07:00:00 (CET)Marseille/Marignane, France (7650): reduced air pressure: 18.01.2021 07:00:00 - 24.01.2021 07:00:00 (CET)Marseille/Marignane, France (7650): visibility: 18.01.2021 07:00:00 - 24.01.2021 07:00:00 (CET)Marseille/Marignane, France (7650): Ensoleillement: 18.01.2021 07:00:00 - 24.01.2021 07:00:00 (CET)Marseille/Marignane, France (7650): Quantités de précipitations: 18.01.2021 07:00:00 - 24.01.2021 07:00:00 (CET)
Date & Time tt [°C] td [°C] tt 5cm [°C] tt -20cm [°C] tt -100cm [°C] ff [km/h] ff [knt] fx [km/h] fx [knt] dd ppp [hPa] vv [km] sd [min] rr [mm]
24.01.2021 07:00:00 6,1 4,6 5,3 8,1 10,8 20 11 30 16 NW 998,5 41 0 0,0
24.01.2021 06:00:00 6,5 5,3 5,8 8,2 10,9 15 8 23 12 NW 998,4 52 0 0,2
24.01.2021 05:00:00 6,6 5,4 5,9 8,2 10,9 16 9 21 12 N 998,7 17 0 0,2
24.01.2021 04:00:00 6,9 5,0 6,0 8,4 10,9 17 9 24 13 N 998,7 7 0 0,4
24.01.2021 03:00:00 7,5 5,6 6,4 8,5 10,8 8 4 12 7 N 999,1 34 0 0,0
24.01.2021 02:00:00 7,4 5,4 6,3 8,5 10,9 3 2 16 9 NW 999,5 37 0 0,4
24.01.2021 01:00:00 8,2 4,8 6,7 8,6 10,8 8 5 10 5 N 999,5 41 0 0,0
24.01.2021 00:00:00 7,9 4,7 6,8 8,6 10,8 8 4 9 5 SSE 1000,5 41 0 0,0
23.01.2021 23:00:00 8,4 4,0 7,0 8,8 10,9 5 3 10 5 E 1000,8 45 0 0,0
23.01.2021 22:00:00 8,8 3,8 7,7 8,8 10,8 4 2 21 11 SSW 1000,8 60 0 0,0
23.01.2021 21:00:00 9,5 3,9 9,0 8,9 10,8 16 9 24 13 WNW 1001,6 60 0 0,0
23.01.2021 20:00:00 10,9 3,9 9,5 8,9 10,8 18 10 32 17 WSW 1001,8 60 0 0,0
23.01.2021 19:00:00 10,1 5,5 9,4 8,9 10,8 12 7 22 12 W 1002,1 60 0 0,0
23.01.2021 18:00:00 11,6 6,9 10,1 8,8 10,8 18 10 26 14 WSW 1002,0 42 0 0,0
23.01.2021 17:00:00 11,8 6,5 11,5 8,6 10,8 15 8 37 20 SW 1001,9 60 6 0,0
23.01.2021 16:00:00 12,7 5,4 12,8 8,4 10,8 26 14 39 21 WSW 1002,1 52 48 0,0
23.01.2021 15:00:00 12,2 6,7 11,4 8,0 10,8 7 4 13 7 S 1002,5 60 2 0,0
23.01.2021 14:00:00 11,5 4,9 13,1 7,7 10,8 2 1 10 6 W 1003,5 54 21 0,0
23.01.2021 13:00:00 11,3 4,7 13,8 7,3 10,8 10 6 18 10 WSW 1004,5 48 47 0,0
23.01.2021 12:00:00 10,3 4,0 11,5 7,1 10,8 4 2 14 8 E 1005,5 55 37 0,0
23.01.2021 11:00:00 8,5 3,1 11,3 6,9 10,8 4 2 16 8 N 1006,0 53 60 0,0
23.01.2021 10:00:00 7,5 3,4 6,8 7,0 10,8 9 5 14 8 NW 1005,8 9 51 0,0
23.01.2021 09:00:00 5,5 2,1 0,5 7,2 10,8 10 5 24 13 N 1005,7 49 30 0,0
23.01.2021 08:00:00 4,6 2,1 -0,5 7,5 10,7 18 10 27 15 WNW 1005,4 60 0 0,0
23.01.2021 07:00:00 4,0 1,0 -0,1 7,7 10,8 5 3 29 15 NNW 1005,5 60 0 0,0
23.01.2021 06:00:00 5,5 2,3 4,3 7,9 10,8 22 12 29 16 W 1005,3 60 0 0,0
23.01.2021 05:00:00 5,9 2,4 4,6 8,1 10,7 24 13 35 19 WNW 1005,3 60 0 0,0
23.01.2021 04:00:00 5,8 2,3 4,9 8,3 10,7 24 13 38 21 WNW 1004,9 60 0 0,0
23.01.2021 03:00:00 6,2 1,9 5,1 8,5 10,7 27 15 39 21 WNW 1004,9 60 0 0,0
23.01.2021 02:00:00 6,2 1,3 5,1 8,8 10,7 28 15 36 20 WNW 1004,1 60 0 0,0
23.01.2021 01:00:00 6,3 1,2 4,9 9,0 10,7 26 14 37 20 NW 1003,8 60 0 0,0
23.01.2021 00:00:00 6,8 1,5 5,9 9,3 10,7 27 14 42 23 WNW 1003,3 60 0 0,0
22.01.2021 23:00:00 7,0 1,9 6,2 9,5 10,7 22 12 52 28 NW 1002,3 60 0 0,0
22.01.2021 22:00:00 8,8 2,1 7,9 9,7 10,7 34 18 60 32 NW 1000,6 60 0 0,0
22.01.2021 21:00:00 9,8 3,5 8,6 9,9 10,7 47 26 68 37 WNW 998,6 60 0 0,0
22.01.2021 20:00:00 10,5 4,8 8,4 10,0 10,7 46 25 65 35 W 996,2 60 0 0,0
22.01.2021 19:00:00 9,7 7,1 8,5 10,1 10,7 25 13 41 22 W 994,9 60 0 0,2
22.01.2021 18:00:00 9,9 7,8 8,6 10,2 10,7 34 18 47 25 W 994,2 20 0 0,6
22.01.2021 17:00:00 9,8 7,7 8,5 10,2 10,7 29 15 46 25 W 993,8 10 0 1,2
22.01.2021 16:00:00 10,2 8,5 9,5 10,1 10,7 33 18 43 23 WSW 993,3 9 0 1,0
22.01.2021 15:00:00 11,0 9,4 10,8 10,0 10,7 15 8 36 19 WSW 992,5 31 0 0,0
22.01.2021 14:00:00 13,9 12,3 12,9 9,8 10,7 23 13 47 25 S 992,3 15 0 0,8
22.01.2021 13:00:00 13,7 12,4 12,6 9,6 10,7 27 14 53 29 SSE 994,2 9 0 5,5
22.01.2021 12:00:00 14,7 11,7 13,4 9,5 10,6 31 17 52 28 SE 996,1 14 2 0,2
22.01.2021 11:00:00 14,8 11,8 13,9 9,4 10,6 32 18 59 32 SE 997,9 16 0 0,0
22.01.2021 10:00:00 14,1 10,7 13,2 9,3 10,6 26 14 40 22 ESE 998,3 17 0 0,0
22.01.2021 09:00:00 13,7 9,5 12,4 9,4 10,6 27 15 40 21 ESE 998,5 20 0 0,0
22.01.2021 08:00:00 13,2 10,0 12,3 9,4 10,7 25 13 37 20 ESE 999,9 20 0 0,0
22.01.2021 07:00:00 13,1 10,1 12,3 9,4 10,6 19 10 33 18 ESE 1000,7 20 0 0,0
22.01.2021 06:00:00 13,1 10,1 10,5 9,4 10,6 22 12 31 17 E 1001,8 20 0 0,0
22.01.2021 05:00:00 12,8 9,8 11,1 9,5 10,6 20 11 26 14 E 1002,8 20 0 0,0
22.01.2021 04:00:00 12,6 10,0 10,7 9,6 10,6 16 9 26 14 E 1003,7 20 0 0,0
22.01.2021 03:00:00 12,7 10,1 11,4 9,7 10,6 16 9 24 13 ESE 1005,0 18 0 0,0
22.01.2021 02:00:00 12,7 10,2 11,3 9,8 10,6 14 8 29 16 ESE 1005,3 16 0 0,0
22.01.2021 01:00:00 12,5 10,4 10,9 9,9 10,6 17 9 27 15 ESE 1005,9 15 0 0,0
22.01.2021 00:00:00 12,5 10,0 11,3 10,0 10,6 13 7 31 17 ESE 1006,8 15 0 0,0
21.01.2021 23:00:00 12,6 10,1 11,5 10,0 10,6 19 10 34 18 ESE 1006,7 17 0 0,0
21.01.2021 22:00:00 13,3 10,5 12,5 10,0 10,6 22 12 41 22 ESE 1007,2 20 0 0,0
21.01.2021 21:00:00 13,7 10,5 13,2 10,1 10,6 26 14 44 24 SE 1007,6 20 0 0,0
21.01.2021 20:00:00 14,0 10,4 13,4 10,0 10,6 30 16 50 27 SE 1007,8 20 0 0,0
21.01.2021 19:00:00 14,0 9,6 13,2 10,1 10,6 28 15 47 26 SSE 1008,1 39 0 0,0
21.01.2021 18:00:00 13,8 9,4 13,4 10,0 10,6 29 16 49 26 SE 1008,0 42 0 0,0
21.01.2021 17:00:00 14,0 9,6 13,8 9,9 10,6 24 13 51 28 SSE 1008,2 31 0 0,0
21.01.2021 16:00:00 14,5 10,3 14,8 9,8 10,6 30 16 54 29 SE 1007,4 28 0 0,0
21.01.2021 15:00:00 14,6 10,6 14,5 9,7 10,6 28 15 45 25 SE 1007,8 20 0 0,0
21.01.2021 14:00:00 15,1 10,7 15,2 9,4 10,6 27 14 42 23 SE 1008,9 20 0 0,0
21.01.2021 13:00:00 14,7 10,3 14,8 9,2 10,6 26 14 38 20 ESE 1009,7 32 4 0,0
21.01.2021 12:00:00 14,4 10,8 14,4 9,1 10,6 28 15 40 21 ESE 1010,8 20 4 0,0
21.01.2021 11:00:00 14,6 10,8 14,1 8,9 10,6 19 10 36 19 ESE 1011,1 18 25 0,0
21.01.2021 10:00:00 13,9 10,9 11,8 8,8 10,6 16 9 26 14 ESE 1010,9 19 1 0,0
21.01.2021 09:00:00 12,1 9,5 11,6 8,8 10,6 19 11 34 19 E 1010,2 37 0 0,0
21.01.2021 08:00:00 12,9 9,9 11,1 8,8 10,6 19 11 29 16 E 1009,7 31 0 0,0
21.01.2021 07:00:00 11,8 9,4 11,3 8,8 10,6 26 14 34 19 E 1009,1 35 0 0,0
21.01.2021 06:00:00 12,5 9,9 11,3 8,7 10,6 19 10 29 16 E 1009,3 30 0 0,0
21.01.2021 05:00:00 12,8 10,3 10,9 8,7 10,6 18 10 48 26 ESE 1009,6 28 0 0,0
21.01.2021 04:00:00 12,4 10,1 11,0 8,7 10,6 18 10 37 20 ESE 1009,5 6 0 1,0
21.01.2021 03:00:00 12,5 10,2 11,0 8,6 10,6 25 13 44 24 SE 1009,4 30 0 0,2
21.01.2021 02:00:00 12,8 10,0 10,9 8,6 10,6 25 13 51 28 SE 1009,4 19 0 0,0
21.01.2021 01:00:00 12,7 8,2 10,8 8,5 10,6 30 16 52 28 SE 1009,5 44 0 0,0
21.01.2021 00:00:00 13,1 11,0 10,6 8,5 10,6 26 14 62 33 SE 1010,1 16 0 0,8
20.01.2021 23:00:00 12,4 10,1 10,6 8,4 10,6 36 19 63 34 ESE 1009,7 3,3 0 1,2
20.01.2021 22:00:00 13,4 8,5 12,0 8,4 10,6 37 20 60 32 ESE 1010,2 46 0 0,0
20.01.2021 21:00:00 12,8 7,5 12,0 8,4 10,6 35 19 58 32 ESE 1010,8 48 0 0,0
20.01.2021 20:00:00 12,9 7,6 12,0 8,4 10,6 39 21 63 34 ESE 1011,7 48 0 0,0
20.01.2021 19:00:00 12,9 7,8 12,1 8,4 10,6 38 20 56 30 ESE 1012,2 51 0 0,0
20.01.2021 18:00:00 13,2 8,1 12,2 8,4 10,6 32 18 53 28 ESE 1013,2 49 0 0,0
20.01.2021 17:00:00 13,5 7,5 12,8 8,3 10,7 31 17 55 30 ESE 1013,2 51 0 0,0
20.01.2021 16:00:00 13,6 7,6 13,4 8,1 10,6 26 14 57 31 SE 1013,6 48 1 0,0
20.01.2021 15:00:00 13,9 7,2 14,4 7,9 10,7 39 21 66 36 SE 1014,0 32 39 0,0
20.01.2021 14:00:00 14,2 8,2 14,0 7,6 10,6 40 22 59 32 SE 1015,0 21 15 0,0
20.01.2021 13:00:00 13,7 8,3 12,2 7,4 10,7 39 21 59 32 SE 1016,0 41 3 0,0
20.01.2021 12:00:00 14,2 9,2 13,6 7,2 10,7 31 17 51 27 SE 1017,0 40 6 0,0
20.01.2021 11:00:00 13,6 8,0 13,4 7,1 10,6 26 14 47 25 SE 1017,5 45 2 0,0
20.01.2021 10:00:00 13,1 8,2 12,1 7,0 10,6 26 14 48 26 SE 1017,6 34 0 0,0
20.01.2021 09:00:00 12,9 8,0 11,6 6,9 10,7 27 15 42 23 SSE 1017,6 49 0 0,0
20.01.2021 08:00:00 12,6 7,9 11,5 6,8 10,6 24 13 40 22 SE 1017,7 54 0 0,0
20.01.2021 07:00:00 12,5 8,2 11,0 6,7 10,7 23 12 40 21 SSE 1017,9 49 0 0,0
20.01.2021 06:00:00 12,2 8,7 10,8 6,6 10,7 23 12 41 22 SSE 1018,1 40 0 0,0
20.01.2021 05:00:00 12,6 9,4 11,5 6,4 10,7 23 12 40 21 SSE 1018,4 39 0 0,0
20.01.2021 04:00:00 12,6 10,1 10,7 6,2 10,7 23 12 35 19 SSE 1018,8 20 0 0,0
20.01.2021 03:00:00 12,5 10,2 10,3 6,1 10,7 16 8 28 15 SSE 1019,3 14 0 0,6
20.01.2021 02:00:00 12,7 9,9 11,4 5,9 10,7 18 10 32 18 SSE 1019,5 15 0 0,0
20.01.2021 01:00:00 12,8 10,0 11,5 5,8 10,7 18 10 39 21 SSE 1020,1 34 0 0,0
20.01.2021 00:00:00 12,6 10,1 11,2 5,7 10,7 23 13 34 18 SSE 1020,7 20 0 0,0
19.01.2021 23:00:00 12,2 9,6 10,5 5,6 10,7 17 9 25 14 SSE 1021,1 20 0 0,0
19.01.2021 22:00:00 11,3 9,0 9,8 5,5 10,7 15 8 24 13 ESE 1021,3 20 0 0,0
19.01.2021 21:00:00 10,7 7,4 9,0 5,5 10,7 14 8 23 12 ESE 1021,7 20 0 0,0
19.01.2021 20:00:00 10,2 6,7 6,0 5,5 10,7 8 4 13 7 ESE 1022,0 24 0 0,0
19.01.2021 19:00:00 7,8 5,3 1,8 5,5 10,7 8 4 10 5 ESE 1022,1 15 0 0,0
19.01.2021 18:00:00 8,6 1,9 4,4 5,3 10,7 2 1 6 4 WNW 1022,2 24 2 0,0
19.01.2021 17:00:00 8,2 3,8 8,3 5,1 10,7 2 1 7 4 SE 1022,3 20 0 0,0
19.01.2021 16:00:00 9,4 2,9 11,0 4,7 10,7 3 2 11 6 NNW 1022,6 20 29 0,0
19.01.2021 15:00:00 10,8 1,9 14,6 4,3 10,7 4 2 8 4 WNW 1022,9 20 52 0,0
19.01.2021 14:00:00 8,6 2,4 13,9 3,9 10,7 6 3 10 5 W 1023,5 17 60 0,0
19.01.2021 13:00:00 8,9 2,0 13,2 3,6 10,7 6 3 10 5 W 1024,3 17 60 0,0
19.01.2021 12:00:00 7,9 0,4 11,4 3,4 10,7 6 3 9 5 W 1025,4 16 60 0,0
19.01.2021 11:00:00 4,9 -0,5 7,1 3,4 10,7 6 3 14 7 N 1025,9 15 60 0,0
19.01.2021 10:00:00 3,4 -0,8 -0,9 3,6 10,7 2 1 11 6 NW 1025,6 16 41 0,0
19.01.2021 09:00:00 -0,3 -2,8 -6,9 3,6 10,7 3 2 7 4 S 1025,2 16 30 0,0
19.01.2021 08:00:00 -2,3 -4,3 -6,1 3,8 10,7 7 4 11 6 SSE 1025,3 20 0 0,0
19.01.2021 07:00:00 -1,2 -3,1 -6,2 3,9 10,7 6 3 11 6 E 1025,4 16 0 0,0
19.01.2021 06:00:00 -2,5 -4,4 -7,1 4,0 10,7 9 5 10 6 SE 1025,5 12 0 0,0
19.01.2021 05:00:00 -1,4 -2,8 -6,6 4,2 10,7 3 2 9 5 ESE 1025,4 12 0 0,0
19.01.2021 04:00:00 -1,3 -3,2 -5,8 4,4 10,7 4 2 9 5 SE 1025,4 11 0 0,0
19.01.2021 03:00:00 -1,5 -3,7 -4,9 4,6 10,7 5 3 15 8 ESE 1025,6 13 0 0,0
19.01.2021 02:00:00 -1,9 -3,5 -4,1 4,8 10,7 11 6 13 7 SE 1025,9 12 0 0,0
19.01.2021 01:00:00 -2,0 -4,0 -4,5 5,0 10,7 9 5 11 6 SSE 1026,2 12 0 0,0
19.01.2021 00:00:00 -1,0 -2,7 -3,6 5,2 10,7 8 5 11 6 SE 1026,4 11 0 0,0
18.01.2021 23:00:00 0,6 -1,8 -2,5 5,4 10,7 2 1 14 7 SW 1026,6 14 0 0,0
18.01.2021 22:00:00 0,0 -2,2 -2,3 5,5 10,7 11 6 17 9 SE 1026,3 16 0 0,0
18.01.2021 21:00:00 1,9 -1,4 -1,4 5,7 10,7 4 2 16 9 ESE 1026,1 24 0 0,0
18.01.2021 20:00:00 5,2 0,0 2,4 5,8 10,7 11 6 21 12 WNW 1026,0 60 0 0,0
18.01.2021 19:00:00 5,0 0,0 2,5 5,8 10,7 11 6 22 12 W 1025,5 43 0 0,0
18.01.2021 18:00:00 6,8 0,2 5,3 5,9 10,8 16 9 28 15 NW 1025,1 60 0 0,0
18.01.2021 17:00:00 8,7 0,4 8,7 5,7 10,7 21 11 34 19 NW 1024,5 41 56 0,0
18.01.2021 16:00:00 9,9 0,5 12,4 5,5 10,7 24 13 46 25 NNW 1024,1 25 60 0,0
18.01.2021 15:00:00 10,4 0,4 13,1 5,2 10,7 31 17 48 26 NNW 1023,8 24 60 0,0
18.01.2021 14:00:00 10,4 -0,4 12,6 5,0 10,7 35 19 60 32 NNW 1023,8 28 60 0,0
18.01.2021 13:00:00 9,9 0,2 12,4 4,7 10,7 34 19 47 26 NNW 1024,4 38 60 0,0
18.01.2021 12:00:00 9,2 -0,2 11,7 4,5 10,7 28 15 43 23 NW 1024,9 50 60 0,0
18.01.2021 11:00:00 8,1 -0,4 7,7 4,5 10,7 26 14 40 22 NW 1025,4 50 60 0,0
18.01.2021 10:00:00 6,7 -0,8 5,2 4,6 10,8 22 12 33 18 NW 1024,9 57 40 0,0
18.01.2021 09:00:00 4,9 -0,7 1,9 4,7 10,7 15 8 26 14 WNW 1024,5 45 29 0,0
18.01.2021 08:00:00 4,0 -1,0 1,1 4,8 10,7 15 8 30 16 WNW 1024,3 60 0 0,0
18.01.2021 07:00:00 4,0 -1,2 0,8 4,9 10,8 13 7 21 11 NW 1024,0 60 0 0,0

tt = Température de l'air
td = dewpoint
tt 5cm = Température de l'air 5cm
tt -20cm = Température de l'air -20cm
tt -100cm = Température de l'air -100cm
ff = Vitesse du vent
fx = gusts
dd = Direction du vent
ppp = reduced air pressure
vv = visibility
sd = Ensoleillement
rr = Quantités de précipitations

stations d'obs. à proximité